User: anonymous   Login
Location: Clinton NY
(43.0598°N, 75.3602°W)
Time: 08:18:42
(UTC-05:00)
Language:

Iridium 11 - Orbit

View from above orbital plane
View from above orbital plane
View from above satellite
View from above satellite

Ground track
Ground track

The orbit data is extracted from the following two-line orbital elements,

1 25578U 98074B   17326.63327251 +.00000138 +00000-0 +42227-4 0  9996
2 25578 086.3983 189.3699 0002067 088.2141 323.7104 14.34220502000115
Epoch (UTC): 22 November 2017 15:11:54
Eccentricity: 0.0002067
inclination: 86.3983°
perigee height: 776 km
apogee height: 779 km
right ascension of ascending node: 189.3699°
argument of perigee: 88.2141°
revolutions per day: 14.34220502
mean anomaly at epoch: 323.7104°
orbit number at epoch: 11

The dashed part of the orbit path shows where the satellite is in the earth's shadow,  

DLR